Regional Weather Roundup
Issued by NWS

Home | Current Version | Previous Version | Graphics & Text | Print | Product List | Glossary On
Versions: 1 2 3 4 5 6 7 8 9 10 11 12 13 14 15 16 17 18 19 20 21 22 23 24 25 26 27 28 29 30 31 32 33 34 35 36 37 38 39 40 41 42 43 44 45 46 47 48 49
000
ASUS45 KCYS 300810
RWRWY

WYOMING REGIONAL WEATHER ROUNDUP
NATIONAL WEATHER SERVICE CHEYENNE WY
200 AM MDT MON MAR 30 2015

NOTE:  "FAIR" INDICATES FEW OR NO CLOUDS BELOW 12,000 FEET
WITH NO SIGNIFICANT WEATHER AND/OR OBSTRUCTIONS TO VISIBILITY.

WYZ001-300900-
YELLOWSTONE NATIONAL PARK

CITY           SKY/WX    TMP DP  RH WIND       PRES   REMARKS
LK YELLOWSTONE   N/A     24  18  77 CALM      30.28S
W YELLOWSTONE  NOT AVBL

$$
WYZ002>013-054>058-071-098>099-300900-
NORTHERN WYOMING

CITY           SKY/WX    TMP DP  RH WIND       PRES   REMARKS
JACKSON        FAIR      28  25  86 N6        30.24F WCI  22
CODY           FAIR      54  14  20 W10G21    30.09F
GREYBULL       FAIR      39  21  48 SE6       30.08F WCI  35
WORLAND        FAIR      36  23  59 S10       30.10S WCI  28
SHERIDAN       FAIR      34  25  69 CALM      30.04S
BUFFALO        FAIR      47  20  34 W6        30.07S
GILLETTE       FAIR      46  26  45 S15       30.04F
HULETT         FAIR      41  25  52 SW8       30.04F
NEWCASTLE      FAIR      37  21  52 N6        30.06S WCI  33

$$
WYZ014>020-022>026-101>103-300900-
CENTRAL WYOMING

CITY           SKY/WX    TMP DP  RH WIND       PRES   REMARKS
BIG PINEY      FAIR      29  16  58 E3        30.26F
PINEDALE       PTSUNNY   28  21  74 W8        30.26F WCI  20
DUBOIS         FAIR      36  18  48 NW14      30.20F WCI  27
LANDER         FAIR      42  15  33 S5        30.14S
RIVERTON       FAIR      50  17  27 NW23G31   30.14R
CASPER         FAIR      30  16  56 SW8       30.11S WCI  22
DOUGLAS        FAIR      33  19  56 N6        30.10S WCI  28

$$
WYZ021-027>030-104>119-300900-
SOUTHERN WYOMING

CITY           SKY/WX    TMP DP  RH WIND       PRES   REMARKS
EVANSTON       FAIR      42  15  33 SW5       30.28S
FORT BRIDGER   FAIR      39  16  39 W9        30.30S WCI  33
ROCK SPRINGS   FAIR      38  12  34 SW10      30.25S WCI  31
DIXON          FAIR      31  18  58 CALM      30.27S
RAWLINS        FAIR      40  12  32 W10       30.21S WCI  33
SARATOGA       FAIR      36  14  41 CALM      30.24S
LARAMIE        FAIR      34  14  43 SE5       30.18F WCI  30
CHEYENNE       FAIR      38  23  55 W12       30.14F WCI  30
TORRINGTON     FAIR      35  22  58 W6        30.06F WCI  30
PINE BLUFFS    FAIR      36  21  55 CALM      30.12F

$$


USA.gov is the U.S. government's official web portal to all federal, state and local government web resources and services.